Powrót do katalogu

STARLINK-35134

AktywnyŁącznośćVLEO
NORAD 65641·PAYLOAD·🇺🇸 United States

Wystrzelony Sep 18, 2025 z Cape Canaveral Space Force Station

Loading…

Następne Przeloty (najbliższe 24 godziny)

TLE

ŚwieżeSource: CelesTrak SupGP

Epoka: Sep 14, 2026, 22:40 UTC

1 65641C 25210V   26257.94493056 -.00076959  00000+0 -22736-2 0  2570
2 65641  53.1566 143.5322 0001205  97.5997 133.1504 15.34430832    15

Śledź STARLINK-35134 w czasie rzeczywistym z AllMySat

Download on the App Store